Location: The Jewett Observatory
(46.7288°N, 117.1525°W)
Time: 10:13:08
(UTC-07:00)

Meteor 1-28 Rocket - Visible Passes

Search period start: 26 April 2015 00:00
Search period end: 06 May 2015 00:00
Orbit: 510 x 531 km, 97.2° (Epoch: 25 April)

Date Brightness Start Highest point End Pass type
(mag) Time Alt. Az. Time Alt. Az. Time Alt. Az.
26 Apr 5.8 21:42:50 10° NNW 21:45:48 22° WNW 21:48:39 10° WSW visible
27 Apr 5.3 21:29:15 10° N 21:32:33 29° WNW 21:35:48 10° SW visible
28 Apr 4.6 21:15:43 10° N 21:19:17 40° WNW 21:22:47 10° SW visible
29 Apr 3.9 21:02:16 10° N 21:05:59 58° WNW 21:09:38 10° SSW visible
30 Apr 3.2 20:48:53 10° N 20:52:39 84° WNW 20:56:23 10° SSW visible
01 May 3.1 20:35:33 10° NNE 20:39:17 67° E 20:43:00 10° S visible
01 May 6.5 22:11:38 10° NW 22:13:01 12° WNW 22:14:15 10° W visible
02 May 6.2 21:57:28 10° NNW 21:59:47 16° WNW 22:01:59 10° W visible
03 May 5.9 21:43:38 10° NNW 21:46:31 21° WNW 21:49:19 10° WSW visible
04 May 5.4 21:29:58 10° N 21:33:14 28° WNW 21:36:26 10° SW visible
05 May 4.7 21:16:23 10° N 21:19:54 39° WNW 21:23:23 10° SW visible
